User: anonymous   Login
Location: Molino di Ancona
(43.6167°N, 13.3667°E)
Time: 08:53:00
(UTC+00:00)
Language:

Cosmos 44 Rocket - Orbit

View from above orbital plane
View from above orbital plane
View from above satellite
View from above satellite

Ground track
Ground track

The orbit data is extracted from the following two-line orbital elements,

1   877U 64053B   20050.13627972 -.00000062  00000-0  12036-4 0  9999
2   877  65.0792 317.6411 0049384  85.7509 274.9231 14.59383960944078
Epoch (UTC): 19 February 2020 03:16:14
Eccentricity: 0.0049384
inclination: 65.0792°
perigee height: 660 km
apogee height: 730 km
right ascension of ascending node: 317.6411°
argument of perigee: 85.7509°
revolutions per day: 14.59383960
mean anomaly at epoch: 274.9231°
orbit number at epoch: 94407

The dashed part of the orbit path shows where the satellite is in the earth's shadow,  

DLR